Вернуться в каталог

STARLINK-30941

АктивенСвязьVLEO
NORAD 58475·PAYLOAD·🇺🇸 United States

Запущен Dec 3, 2023 с Cape Canaveral Space Force Station

Loading…

Ближайшие Пролёты (ближайшие 24 часа)

TLE

СвежийSource: CelesTrak SupGP

Эпоха: Sep 14, 2026, 21:05 UTC

1 58475C 23186C   26257.87895833  .00040709  00000+0  14743-2 0  2579
2 58475  43.0009  78.7883 0001583 268.3716 257.4625 15.27561400    11

Отслеживайте STARLINK-30941 в реальном времени с AllMySat

Download on the App Store